Location: Blanot
(47.1713°N, 4.2340°E)
Time: 08:41:37
(UTC+00:00)

Cosmos 1833 Rocket - Pass Details

Date: 14 July 2020
Orbit: 832 x 840 km, 71.0° (Epoch: 14 August)

Event Time Altitude Azimuth Distance (km) Brightness Sun altitude
Exits shadow 00:44:46 19° 138° (SE) 1,900 4.2 -20.1°
Maximum altitude 00:47:10 25° 102° (ESE) 1,629 4.2 -20.0°
Drops below altitude 10° 00:51:37 10° 49° (NE) 2,451 5.9 -19.8°
Sets 00:54:27 0° 37° (NE) 3,391 7.1 -19.6°
